Weather History for Shepherd Bay, NU

Change the Weather History Date:

Thursday, February 14, 2013

  Actual Average Record
Temperature  
Mean Temperature -44 °F -  
Max Temperature -39 °F - - ()
Min Temperature -50 °F - - ()
Degree Days  
Heating Degree Days 110    
Moisture  
Dew Point -    
Average Humidity    
Maximum Humidity    
Minimum Humidity    
Precipitation  
Precipitation 0.00 in - - ()
Sea Level Pressure  
Sea Level Pressure 30.21 in    
Wind  
Wind Speed 6 mph ()    
Max Wind Speed 9 mph    
Max Gust Speed -    
Visibility 5.2 miles    
Events      
T = Trace of Precipitation, MM = Missing Value Source: Averaged Metar Reports

Daily Weather History Graph

Daily Weather History Graph

Search for Another Location

Airport:

Trip Planner

Search our weather history database for the weather conditions in past years. The results will help you decide how hot, cold, wet, or windy it might be!

Date:

Astronomy

Feb. 14, 2013 Rise Set
Actual Time 8:40 AM CST 4:16 PM CST
Civil Twilight 7:35 AM CST 5:21 PM CST
Nautical Twilight 6:27 AM CST 6:29 PM CST
Astronomical Twilight 5:21 AM CST 7:36 PM CST
Moon 7:54 AM CST (2/14) No Moon Set
Length of Visible Light 9h 45m
Length of Day
7h 36m
Waxing Crescent, 22% of the Moon is Illuminated
Feb 14
Waxing Crescent
Feb 17
First Quarter
Feb 25
Full
Mar 4
Last Quarter
Mar 11
New

Hourly Weather History & Observations

Time (CST) Temp. Windchill Dew Point Humidity Pressure Visibility Wind Dir Wind Speed Gust Speed Precip Events Conditions
12:00 AM -39 °F - - % 30.14 in 0 mi SW 8.1 mph - -  
12:00 AM -40.0 °F -62.9 °F - N/A% 30.14 in 0.4 mi SW 8.1 mph - N/A   Unknown
12:26 AM -43.6 °F -67.3 °F - N/A% 30.11 in 0.8 mi SSW 8.1 mph - N/A   Unknown
12:30 AM -43.6 °F -67.3 °F - N/A% 30.11 in 0.6 mi SSW 8.1 mph - N/A   Unknown
12:32 AM -43.6 °F -67.3 °F - N/A% 30.11 in 0.4 mi SSW 8.1 mph - N/A   Unknown
12:36 AM -43.6 °F -67.3 °F - N/A% 30.11 in 0.1 mi SSW 8.1 mph - N/A   Unknown
1:00 AM -43.6 °F -65.4 °F - N/A% 30.15 in 0.4 mi SSW 6.9 mph - N/A   Unknown
1:07 AM -43.6 °F -57.7 °F - N/A% 30.12 in 1.5 mi SSE 3.5 mph - N/A   Unknown
1:18 AM -47.2 °F -61.8 °F - N/A% 30.13 in 9.0 mi SSE 3.5 mph - N/A   Unknown
2:00 AM -50.8 °F - - N/A% 30.17 in 9.0 mi SE 6.9 mph - N/A   Unknown
3:00 AM -49 °F - - % 30.18 in 9 mi South 6.9 mph - -  
3:00 AM -49.0 °F - - N/A% 30.18 in 9.0 mi South 5.8 mph - N/A   Unknown
4:00 AM -47.2 °F -71.7 °F - N/A% 30.18 in 9.0 mi South 8.1 mph - N/A   Unknown
4:11 AM -47.2 °F -71.7 °F - N/A% 30.15 in 1.6 mi SSW 8.1 mph - N/A   Unknown
4:12 AM -45.4 °F -69.5 °F - N/A% 30.15 in 1.1 mi SSW 8.1 mph - N/A   Unknown
4:14 AM -45.4 °F -69.5 °F - N/A% 30.15 in 1.0 mi SSW 8.1 mph - N/A   Unknown
4:22 AM -45.4 °F -69.5 °F - N/A% 30.15 in 2.1 mi South 8.1 mph - N/A   Unknown
4:32 AM -47.2 °F -67.6 °F - N/A% 30.15 in 9.0 mi South 5.8 mph - N/A   Unknown
5:00 AM -50.8 °F - - N/A% 30.20 in 6.0 mi SSE 5.8 mph - N/A   Unknown
6:00 AM -50 °F - - % 30.20 in 7 mi South 5.8 mph - -  
7:00 AM -47.2 °F -71.7 °F - N/A% 30.21 in 8.0 mi SSW 8.1 mph - N/A   Unknown
7:27 AM -45.4 °F -69.5 °F - N/A% 30.17 in 2.6 mi SSW 8.1 mph - N/A   Unknown
7:31 AM -45.4 °F -69.5 °F - N/A% 30.17 in 1.2 mi SSW 8.1 mph - N/A   Unknown
7:41 AM -47.2 °F -69.8 °F - N/A% 30.18 in 4.0 mi South 6.9 mph - N/A   Unknown
8:00 AM -45.4 °F -67.6 °F - N/A% 30.21 in 2.5 mi SSW 6.9 mph - N/A   Unknown
8:05 AM -45.4 °F -69.5 °F - N/A% 30.18 in 0.4 mi SSW 8.1 mph - N/A   Unknown
8:09 AM -45.4 °F -69.5 °F - N/A% 30.18 in 0.1 mi SSW 8.1 mph - N/A   Unknown
8:22 AM -45.4 °F -69.5 °F - N/A% 30.18 in 0.5 mi SSW 8.1 mph - N/A   Unknown
8:29 AM -45.4 °F -67.6 °F - N/A% 30.18 in 1.1 mi South 6.9 mph - N/A   Unknown
8:40 AM -45.4 °F -69.5 °F - N/A% 30.18 in 0.8 mi SSW 8.1 mph - N/A   Unknown
8:41 AM -45.4 °F -69.5 °F - N/A% 30.18 in 0.6 mi SSW 8.1 mph - N/A   Unknown
8:43 AM -45.4 °F -71.1 °F - N/A% 30.18 in 0.4 mi SSW 9.2 mph - N/A   Unknown
8:47 AM -43.6 °F -68.9 °F - N/A% 30.18 in 0.1 mi SSW 9.2 mph - N/A   Unknown
9:00 AM -45 °F - - % 30.22 in 0 mi SSW 9.2 mph - -  
9:00 AM -45.4 °F -71.1 °F - N/A% 30.22 in 0.1 mi SSW 9.2 mph - N/A   Unknown
9:07 AM -47.2 °F -67.6 °F - N/A% 30.19 in 0.5 mi SSE 5.8 mph - N/A   Unknown
9:10 AM -47.2 °F -67.6 °F - N/A% 30.19 in 2.1 mi SSE 5.8 mph - N/A   Unknown
9:20 AM -49.0 °F - - N/A% 30.19 in 9.0 mi South 5.8 mph - N/A   Unknown
10:00 AM -50.8 °F - - N/A% 30.23 in 8.0 mi SE 6.9 mph - N/A   Unknown
11:00 AM -50.8 °F - - N/A% 30.24 in 8.0 mi SE 5.8 mph - N/A   Unknown
11:06 AM -50.8 °F - - N/A% 30.20 in 8.0 mi SE 5.8 mph - N/A   Unknown
12:00 PM -48 °F - - % 30.25 in 9 mi SSE 5.8 mph - -  
12:00 PM -49.0 °F - - N/A% 30.25 in 9.0 mi SSE 5.8 mph - N/A   Unknown
12:59 PM -47.2 °F -67.6 °F - N/A% 30.21 in 9.0 mi SSE 5.8 mph - N/A   Unknown
1:00 PM -47.2 °F -67.6 °F - N/A% 30.25 in 9.0 mi SSE 5.8 mph - N/A   Unknown
2:00 PM -43.6 °F -60.8 °F - N/A% 30.26 in 9.0 mi SSW 4.6 mph - N/A   Unknown
2:07 PM -43.6 °F -60.8 °F - N/A% 30.22 in 9.0 mi South 4.6 mph - N/A   Unknown
2:10 PM -43.6 °F -60.8 °F - N/A% 30.22 in 9.0 mi South 4.6 mph - N/A   Unknown
2:21 PM -45.4 °F -59.7 °F - N/A% 30.23 in 9.0 mi South 3.5 mph - N/A   Unknown
2:51 PM -43.6 °F -57.7 °F - N/A% 30.23 in 9.0 mi South 3.5 mph - N/A   Unknown
2:56 PM -43.6 °F -57.7 °F - N/A% 30.23 in 9.0 mi SSW 3.5 mph - N/A   Unknown
3:00 PM -44 °F - - % 30.27 in 9 mi SSW 3.5 mph - -  
3:00 PM -43.6 °F -57.7 °F - N/A% 30.27 in 9.0 mi SW 3.5 mph - N/A   Unknown
3:01 PM -43.6 °F -57.7 °F - N/A% 30.23 in 9.0 mi SW 3.5 mph - N/A   Unknown
3:11 PM -41.8 °F -58.7 °F - N/A% 30.24 in 3.0 mi SW 4.6 mph - N/A   Unknown
3:16 PM -41.8 °F -61.2 °F - N/A% 30.24 in 1.4 mi SW 5.8 mph - N/A   Unknown
3:18 PM -40.0 °F -56.6 °F - N/A% 30.24 in 0.8 mi WSW 4.6 mph - N/A   Unknown
3:19 PM -40.0 °F -56.6 °F - N/A% 30.24 in 0.6 mi WSW 4.6 mph - N/A   Unknown
3:25 PM -40.0 °F -56.6 °F - N/A% 30.24 in 0.4 mi WSW 4.6 mph - N/A   Unknown
3:41 PM -41.8 °F -55.6 °F - N/A% 30.24 in 1.0 mi SSW 3.5 mph - N/A   Unknown
3:43 PM -43.6 °F -57.7 °F - N/A% 30.25 in 1.6 mi South 3.5 mph - N/A   Unknown
3:53 PM -43.6 °F -57.7 °F - N/A% 30.25 in 9.0 mi SSW 3.5 mph - N/A   Unknown
4:00 PM -41.8 °F -55.6 °F - N/A% 30.29 in 9.0 mi SW 3.5 mph - N/A   Unknown
5:00 PM -49.0 °F - - N/A% 30.30 in 9.0 mi East 5.8 mph - N/A   Unknown
6:00 PM -47 °F - - % 30.31 in 9 mi SSE 3.5 mph - -  
6:00 PM -47.2 °F -61.8 °F - N/A% 30.31 in 9.0 mi SSE 3.5 mph - N/A   Unknown
6:07 PM -47.2 °F -61.8 °F - N/A% 30.27 in 9.0 mi SE 3.5 mph - N/A   Unknown
6:11 PM -47.2 °F -61.8 °F - N/A% 30.27 in 9.0 mi SE 3.5 mph - N/A   Unknown
6:23 PM -47.2 °F - - N/A% 30.27 in 9.0 mi South 2.3 mph - N/A   Unknown
6:44 PM -41.8 °F -55.6 °F - N/A% 30.27 in 9.0 mi South 3.5 mph - N/A   Unknown
7:00 PM -45.4 °F -65.4 °F - N/A% 30.31 in 9.0 mi ESE 5.8 mph - N/A   Unknown
8:00 PM -50.8 °F - - N/A% 30.32 in 9.0 mi SSE 4.6 mph - N/A   Unknown
9:00 PM -47 °F - - % 30.30 in 9 mi SSW 6.9 mph - -  
9:00 PM -47.2 °F -71.7 °F - N/A% 30.30 in 9.0 mi SSW 8.1 mph - N/A   Unknown
10:00 PM -50.8 °F - - N/A% 30.31 in 9.0 mi SSE 4.6 mph - N/A   Unknown
11:00 PM -50.8 °F - - N/A% 30.31 in 9.0 mi SSE 4.6 mph - N/A   Unknown